STARLINK-5728 (55588 NORAD) Tracking and Keplerian Element Data

This shows tracking and keplerian element data for the satellite.

Feedback or suggestion? Click here.




ElementValue
Catalog55588
NameSTARLINK-5728
Epoch Orbit130
Epoch Day84.91667824
Epoch Year2023
RAAN111.8397
Inclination42.9974
Eccentricity0.0001438
Argument of Perigee259.7303
Mean Anonmoly84.594
Mean Motion15.08484878
Decay Rate-0.0116607
L11 55588U 23020V 23084.91667824 -.01166070 00000+0 -80040-1 0 9993
L22 55588 42.9974 111.8397 0001438 259.7303 84.5940 15.08484878 1300



Live tracking and technical data element details for STARLINK-5728 (NORAD 55588). STARLINK-5728 can be tracked NOW for your location showing map with azimuth and elevation plus other details from your city location.







IsCatalogInMostPopularTable: catalog: 55588, numindb: -1

Insert: records affected: 1


GetName: 55588 STARLINK-5728

Hit Count: inserted at: Tue, 28 Mar 2023 01:25:36 GMT